Regional Weather Roundup
Issued by NWS

Home | Current Version | Previous Version | Graphics & Text | Print | Product List | Glossary On
Versions: 1 2 3 4 5 6 7 8 9 10 11 12 13 14 15 16 17 18 19 20 21 22 23 24 25 26 27 28 29 30 31 32 33 34 35 36 37 38 39 40 41 42 43 44 45 46 47 48 49 50
000
ASUS43 KBIS 300302
RWRND

NORTH DAKOTA REGIONAL WEATHER ROUNDUP
NATIONAL WEATHER SERVICE BISMARCK ND
1000 PM CDT SUN MAY 29 2016

NOTE: "FAIR" INDICATES FEW OR NO CLOUDS BELOW 12,000 FEET WITH NO
SIGNIFICANT WEATHER AND/OR OBSTRUCTIONS TO VISIBILITY.


NDZ001>003-009>011-017-300400-
NORTHWEST NORTH DAKOTA

CITY           SKY/WX    TMP DP  RH WIND       PRES   REMARKS
WILLISTON      CLEAR     59  44  57 CALM      29.92R
MINOT          CLEAR     65  42  43 CALM      29.91S
MINOT AFB      CLEAR     61  48  62 E2        29.90S
$$

NDZ018>021-031>035-040>046-300400-
SOUTHWEST NORTH DAKOTA

CITY           SKY/WX    TMP DP  RH WIND       PRES   REMARKS
BISMARCK       CLEAR     67  49  52 CALM      29.94S
DICKINSON      CLOUDY    64  40  41 E5        29.94R
GARRISON         N/A     65  47  52 CALM      29.93R
HETTINGER ARPT CLEAR     59  49  69 S8        29.98R
$$

NDZ004>008-012>016-024-026-027-054-300400-
NORTHEAST NORTH DAKOTA

CITY           SKY/WX    TMP DP  RH WIND       PRES   REMARKS
GRAND FORKS    CLEAR     60  51  72 SW3       29.91R
GRND FRKS AFB  CLEAR     59  49  70 W3        29.92R
DEVILS LAKE    CLEAR     61  46  57 CALM      29.94R
$$

NDZ022-023-025-028>030-036>039-047>053-300400-
SOUTHEAST NORTH DAKOTA

CITY           SKY/WX    TMP DP  RH WIND       PRES   REMARKS
FARGO          CLEAR     64  50  60 CALM      29.92R
JAMESTOWN      CLEAR     62  47  57 N7        29.94S
$$




USA.gov is the U.S. government's official web portal to all federal, state and local government web resources and services.